{"data":{"norad_id":62792,"intl_designator":"2025-016H","name":"QIANFAN-62","alt_names":[],"object_type":"PAYLOAD","status":"ACTIVE","operator":null,"country":"PRC","launch_date":"2025-01-23","launch_site_code":"TAISC","launch_vehicle":null,"mission":null,"orbit_class":"UNKNOWN","rcs_meters":null,"size_class":null,"mass_kg":null,"dimensions":null,"purposes":[],"wikipedia_slug":null,"has_3d_model":false,"image_url":null,"decayed_at":null,"tle_current":{"epoch":"2026-09-22T22:08:14.936640Z","epoch_age_seconds":108884,"freshness":"FRESH","line1":"1 62792U 25016H   26265.92239510  .00000047  00000+0  54338-4 0  9999","line2":"2 62792  88.9667  73.5812 0014501 238.7526 121.2205 13.51027261 85602","mean_motion":13.51027261,"eccentricity":0.0014501,"inclination_deg":88.9667,"raan_deg":73.5812,"arg_perigee_deg":238.7526,"mean_anomaly_deg":121.2205,"bstar":5.4338e-5,"rev_number":8560,"period_min":106.58556208068,"perigee_km":1057.6830703941,"apogee_km":1079.2797531119,"semimajor_km":7446.618411753,"source":"CELESTRAK","updated_at":"2026-09-23T09:00:21.634990Z"}}}